Preview of NWS' New Version of Forecast
This preview is not operational and should not be used for support decisions.

Regional Weather Roundup (RWR)

Issued by Gray - Portland, ME (GYX)

                            
352 
ASUS41 KGYX 192205
RWRGYX
WEATHER ROUNDUP FOR MAINE AND NEW HAMPSHIRE
NATIONAL WEATHER SERVICE GRAY ME
600 PM EDT TUE JUN 19 2018

MEZ002-005-006-010-012-015-018-020-021-024-026-027-029-192300-
MAINE
  
CITY           SKY/WX    TMP DP  RH WIND       PRES   REMARKS
PORTLAND       FAIR      76  47  35 NW16G25   29.76R                  
SANFORD        FAIR      78  43  28 N12       29.77R                  
BAR HARBOR     FAIR      73  46  38 NW14G20   29.70R                  
WISCASSET      FAIR      76  47  35 VRB5      29.74R                  
ROCKLAND       FAIR      75  50  41 NW8       29.72R                  
FRYEBURG       FAIR      75  48  38 N10G17    29.79R                  
LEWISTONAUBURN FAIR      74  48  39 NW15G24   29.76R                  
AUGUSTA        FAIR      75  45  34 N17G25    29.75R                  
WATERVILLE     FAIR      73  47  39 N9        29.73R                  
BANGOR         FAIR      74  45  35 NW21      29.72R                  
GREENVILLE       N/A     66  44  45 NW16G30   29.75R                  
MILLINOCKET    FAIR      75  41  29 NW17G24   29.71R                  
HOULTON        FAIR      69  45  41 N15G24    29.67R                  
PRESQUE ISLE   FAIR      68  44  42 NW17G23   29.70R                  
FRENCHVILLE    FAIR      67  44  43 NW18G33   29.69R                  
CARIBOU        FAIR      67  45  45 NW15G26   29.68R                  
$$

NHZ002-005-008-009-011-012-014-192300-
NEW HAMPSHIRE
  
CITY           SKY/WX    TMP DP  RH WIND       PRES   REMARKS
PORTSMOUTH     MOSUNNY   80  43  27 NW10G18   29.75R                  
ROCHESTER      FAIR      77  47  34 NW16G23   29.76R                  
NASHUA         FAIR      79  48  33 NW17G24   29.79S                  
MANCHESTER     FAIR      81  43  26 NW12G20   29.77S                  
CONCORD        FAIR      79  47  32 NW9       29.79S                  
LACONIA        FAIR      74  47  38 NW14G21   29.81S                  
PLYMOUTH       FAIR      73  45  36 NW12      29.82S                  
BERLIN         FAIR      70  47  43 N10G17    29.84R                  
WHITEFIELD     FAIR      71  47  42 NW12      29.86R                  
JAFFREY        FAIR      76  45  33 N8        29.84R                  
KEENE          FAIR      79  48  33 NW7       29.82S                  
LEBANON        FAIR      76  47  35 NW12      29.84R                  
MT WASHINGTON  MOSUNNY   43  37  81 NW52G60     N/A                   
$$

VTZ005-007-008-192300-
VERMONT
  
CITY           SKY/WX    TMP DP  RH WIND       PRES   REMARKS
ST JOHNSBURY     N/A     70  48  45 MISG      29.84S                  
MONTPELIER     FAIR      68  50  52 NW12G20   29.92R                  
BURLINGTON     FAIR      75  49  39 N12       29.87S                  
$$

MAZ007-012-024-CTZ003-RIZ002-NYZ038-NYZ072-192300-
SOUTHERN NEW ENGLAND AND NY
  
CITY           SKY/WX    TMP DP  RH WIND       PRES   REMARKS
BOSTON         FAIR      81  47  30 NW14G24   29.77R                  
WORCESTER      FAIR      77  52  41 NW12      29.82S                  
NANTUCKET      FAIR      67  58  72 VRB5      29.77S                  
PROVIDENCE     FAIR      82  51  34 NW12G20   29.78R                  
HARTFORD       FAIR      82  52  35 N10       29.80S                  
ALBANY         FAIR      79  54  41 VRB6      29.84S                  
NEW YORK CITY  FAIR      88  51  28 NW9       29.78S                  
$$

ANZ081-ANZ082-ANZ150-NHZ014-MEZ023>029-192300-
COASTAL MARINE OBSERVATIONS
  
STATION/POSITION TIME  TEMP    WIND        PRES    WAVE
                       AIR SEA DIR/SP/G            HT/PER
                 (UTC) (F)     (DEG/KT/KT) (MB)    (FT/S)
MOUNT DESERT ROC 2200   61     300/ 11/ 12 1006.0R
MATINICUS ROCK   2100   70     330/  9/  9 1005.8R
ISLE OF SHOALS   2100   75     320/ 15/ 17 1006.9R
JEFFREYS LEDGE   2136      63                N/A     2/ 6
$$

.............KEY..............
   WCI - WIND CHILL
   TC  - TEMPERATURE IN CELSIUS
   VSB - VISIBILITY IN MILES
   HX  - HEAT INDEX
   FAIR- INDICATES FEW OR NO CLOUDS BELOW 12,000 FT, WITH NO 
         SIGNIFICANT WEATHER AND/OR OBSTRUCTIONS TO VISIBILITY.